Location: Strada George Coșbuc
(47.6577°N, 23.5639°E)
Time: 22:09:42
(UTC+03:00)

ISS - Pass Details

Date: 26 September 2017
Orbit: 401 x 407 km, 51.6° (Epoch: 25 September)

Event Time Altitude Azimuth Distance (km) Brightness Sun altitude
Rises 19:51:10 0° 193° (SSW) 2,304 0.1 -6.9°
Reaches altitude 10° 19:54:05 10° 164° (SSE) 1,452 -1.2 -7.4°
Maximum altitude 19:55:39 13° 135° (SE) 1,290 -1.7 -7.6°
Enters shadow 19:57:08 10° 107° (ESE) 1,441 -1.7 -7.9°
